Rogers, AR

6:26 AM CDT on April 23, 2017 (GMT -0500)
Rogers Municipal-Carter

Weather History for KROG - May, 2013

Change the Weather History Date:

Friday, May 3, 2013

  Actual Average Record
Temperature  
Mean Temperature 38 °F -  
Max Temperature 44 °F 70 °F 82 °F (2012)
Min Temperature 33 °F 51 °F 33 °F (2011)
Degree Days  
Heating Degree Days 26    
Moisture  
Dew Point 33 °F    
Average Humidity 87    
Maximum Humidity 93    
Minimum Humidity 58    
Precipitation  
Precipitation 0.18 in - - ()
Sea Level Pressure  
Sea Level Pressure 30.09 in    
Wind  
Wind Speed 11 mph (NW)    
Max Wind Speed 18 mph    
Max Gust Speed 28 mph    
Visibility 8 miles    
Events Rain , Snow    
Averages and records for this station are not official NWS values.
T = Trace of Precipitation, MM = Missing Value Source: NWS Daily Summary

Daily Weather History Graph

Daily Weather History Graph

Search for Another Location

Airport or City:

Trip Planner

Search our weather history database for the weather conditions in past years. The results will help you decide how hot, cold, wet, or windy it might be!

Date:

Astronomy

May. 03, 2013 Rise Set
Actual Time 6:20 AM CDT 8:06 PM CDT
Civil Twilight 5:53 AM CDT 8:34 PM CDT
Nautical Twilight 5:19 AM CDT 9:07 PM CDT
Astronomical Twilight 4:43 AM CDT 9:43 PM CDT
Moon 2:34 AM CDT (5/3) 2:11 PM CDT (5/3)
Length of Visible Light 14h 41m
Length of Day
13h 45m
Last Quarter, 37% of the Moon is Illuminated
May 3
Last Quarter
May 9
New
May 17
First Quarter
May 24
Full
May 31
Last Quarter

Hourly Weather History & Observations

Time (CDT) Temp. Windchill Dew Point Humidity Pressure Visibility Wind Dir Wind Speed Gust Speed Precip Events Conditions
12:57 AM 33.1 °F 24.4 °F 30.9 °F 92% 30.25 in 10.0 mi NNW 11.5 mph 21.9 mph 0.03 in Rain Light Rain
1:15 AM 33.8 °F 24.3 °F 30.2 °F 87% 30.21 in 5.0 mi NNW 13.8 mph 21.9 mph 0.00 in Rain Light Freezing Rain
1:54 AM 33.8 °F 26.4 °F 30.2 °F 87% 30.21 in 10.0 mi NNW 9.2 mph 16.1 mph 0.00 in Rain Light Rain
1:57 AM 33.1 °F 26.1 °F 30.9 °F 92% 30.22 in 10.0 mi NNW 8.1 mph 16.1 mph 0.00 in Rain Light Rain
2:57 AM 33.1 °F 25.5 °F 30.9 °F 92% 30.18 in 9.0 mi NNW 9.2 mph 20.7 mph 0.02 in Snow Light Snow
3:57 AM 33.1 °F 24.4 °F 30.9 °F 92% 30.19 in 2.5 mi NW 11.5 mph - 0.01 in Snow Light Snow
4:04 AM 33.8 °F 26.4 °F 30.2 °F 87% 30.16 in 1.5 mi NW 9.2 mph - 0.01 in Snow Light Snow
4:10 AM 33.8 °F 25.8 °F 30.2 °F 87% 30.16 in 1.0 mi NNW 10.4 mph - 0.01 in Snow Light Snow
4:18 AM 33.8 °F 24.3 °F 30.2 °F 87% 30.14 in 1.0 mi NNW 13.8 mph 21.9 mph 0.01 in Snow Light Snow
4:25 AM 33.8 °F 25.8 °F 30.2 °F 87% 30.15 in 1.2 mi NNW 10.4 mph 21.9 mph 0.02 in Snow Light Snow
4:35 AM 33.8 °F 25.3 °F 30.2 °F 87% 30.15 in 1.0 mi NNW 11.5 mph - 0.02 in Snow Light Snow
4:38 AM 33.8 °F 25.3 °F 30.2 °F 87% 30.15 in 1.2 mi NNW 11.5 mph - 0.02 in Snow Light Snow
4:46 AM 33.8 °F 25.3 °F 30.2 °F 87% 30.16 in 2.0 mi NW 11.5 mph 21.9 mph 0.02 in Snow Light Snow
4:52 AM 33.8 °F 25.3 °F 30.2 °F 87% 30.17 in 3.0 mi NNW 11.5 mph 21.9 mph 0.03 in Snow Light Snow
4:57 AM 33.8 °F 26.4 °F 30.2 °F 87% 30.16 in 4.0 mi NNW 9.2 mph 18.4 mph 0.04 in Snow Light Snow
4:59 AM 33.1 °F 24.9 °F 30.9 °F 92% 30.18 in 4.0 mi NNW 10.4 mph - 0.05 in Snow Light Snow
5:26 AM 33.8 °F 24.8 °F 30.2 °F 87% 30.13 in 7.0 mi NNW 12.7 mph 20.7 mph 0.02 in Snow Light Snow
5:57 AM 33.1 °F 24.4 °F 30.9 °F 92% 30.15 in 9.0 mi NNW 11.5 mph - 0.03 in Snow Light Snow
6:57 AM 33.1 °F 24.4 °F 30.9 °F 92% 30.13 in 9.0 mi NW 11.5 mph 19.6 mph 0.00 in Snow Light Snow
7:57 AM 34.0 °F 25.5 °F 32.0 °F 92% 30.14 in 9.0 mi NW 11.5 mph - 0.00 in Snow Light Snow
8:57 AM 34.0 °F 24.6 °F 32.0 °F 92% 30.13 in 10.0 mi NW 13.8 mph 19.6 mph 0.00 in Rain Light Rain
9:57 AM 35.1 °F 26.9 °F 33.1 °F 92% 30.13 in 7.0 mi WNW 11.5 mph - 0.00 in   Overcast
10:57 AM 36.0 °F 28.0 °F 34.0 °F 93% 30.12 in 6.0 mi WNW 11.5 mph - 0.00 in Rain Light Rain
11:57 AM 37.9 °F 30.5 °F 36.0 °F 93% 30.11 in 4.0 mi WNW 11.5 mph 19.6 mph 0.01 in Rain Light Rain
12:57 PM 39.0 °F 31.0 °F 36.0 °F 89% 30.09 in 7.0 mi WNW 13.8 mph 21.9 mph 0.01 in Rain Light Rain
1:41 PM 39.2 °F 31.2 °F 37.4 °F 93% 30.05 in 10.0 mi NW 13.8 mph 23.0 mph 0.00 in Rain Light Rain
1:57 PM 39.0 °F 29.6 °F 37.0 °F 93% 30.07 in 10.0 mi WNW 18.4 mph 21.9 mph 0.00 in Rain Light Rain
2:47 PM 39.2 °F 30.8 °F 35.6 °F 87% 30.04 in 10.0 mi WNW 15.0 mph 21.9 mph 0.01 in Rain Light Rain
2:57 PM 39.9 °F 31.4 °F 36.0 °F 86% 30.06 in 10.0 mi WNW 16.1 mph 27.6 mph 0.01 in Rain Light Rain
3:32 PM 39.2 °F 33.0 °F 35.6 °F 87% 30.03 in 10.0 mi NW 9.2 mph - 0.00 in Rain Light Rain
3:57 PM 41.0 °F 34.3 °F 37.0 °F 86% 30.04 in 10.0 mi NW 11.5 mph - 0.00 in Rain Light Rain
4:57 PM 43.0 °F 36.8 °F 35.1 °F 74% 30.02 in 10.0 mi NW 11.5 mph - 0.00 in   Overcast
5:57 PM 44.1 °F 37.1 °F 30.0 °F 58% 30.01 in 10.0 mi WNW 15.0 mph 21.9 mph N/A   Overcast
6:57 PM 41.0 °F 37.1 °F 34.0 °F 76% 30.02 in 10.0 mi North 5.8 mph - 0.00 in   Overcast
7:45 PM 39.2 °F 33.6 °F 33.8 °F 81% 30.01 in 10.0 mi NNW 8.1 mph - 0.00 in Rain Light Rain
7:57 PM 39.0 °F 34.0 °F 33.1 °F 79% 30.03 in 10.0 mi WNW 6.9 mph - 0.00 in Rain Light Rain
8:57 PM 37.0 °F 31.0 °F 34.0 °F 89% 30.03 in 10.0 mi NW 8.1 mph - 0.01 in Rain Light Rain
9:03 PM 37.4 °F 31.4 °F 33.8 °F 87% 30.01 in 10.0 mi NW 8.1 mph - 0.00 in Rain Light Rain
9:08 PM 37.4 °F 30.3 °F 33.8 °F 87% 30.00 in 10.0 mi NW 10.4 mph - 0.00 in Rain Light Rain
9:16 PM 37.4 °F 32.8 °F 33.8 °F 87% 30.00 in 10.0 mi NNW 5.8 mph - 0.00 in Rain Light Rain
9:45 PM 37.4 °F 30.8 °F 33.8 °F 87% 30.00 in 10.0 mi WNW 9.2 mph - 0.00 in Rain Light Rain
9:57 PM 37.0 °F 29.3 °F 34.0 °F 89% 30.02 in 10.0 mi WNW 11.5 mph 20.7 mph 0.00 in Rain Light Rain
10:09 PM 37.4 °F 29.3 °F 33.8 °F 87% 29.99 in 10.0 mi WNW 12.7 mph 23.0 mph 0.00 in Rain Light Rain
10:20 PM 37.4 °F 28.9 °F 33.8 °F 87% 29.98 in 10.0 mi NW 13.8 mph 21.9 mph 0.00 in Rain Light Rain
10:25 PM 37.4 °F 29.8 °F 33.8 °F 87% 29.98 in 10.0 mi WNW 11.5 mph - 0.00 in Rain Light Rain
10:57 PM 37.0 °F 29.3 °F 33.1 °F 86% 29.99 in 10.0 mi WNW 11.5 mph - 0.00 in   Overcast
11:40 PM 35.6 °F 27.5 °F 33.8 °F 93% 29.95 in 10.0 mi West 11.5 mph - 0.00 in   Overcast
11:57 PM 36.0 °F 28.0 °F 33.1 °F 89% 29.97 in 10.0 mi WNW 11.5 mph - 0.00 in Rain Light Rain